Notices

What's New in latest Release from April 7th, 2021:

- Updated Glossary, including Speed of Maximum Gust, and Total Hourly Precipitation

- Updated national and regional climate services offices contacts and prices information

- Addition of station inventory lists for 1981-2010, 1971-2000, and 1961-1990 Normals.

If you haven't already, please take our survey and provide feedback about our website: https://eccc.sondage-survey.ca/f/LanguageSelection.aspx?s=442ca660-fcf1-47c0-95a9-59707d6fd709

Hourly Data Report for January 26, 2012

HALIFAX STANFIELD INT'L A
NOVA SCOTIA

44°52'48.060" N
63°30'00.050" W
145.40 m
8202250
71395
YHZ

Download Data

Hourly Data (January 2012)
Hourly Data Report for January 26, 2012
TIME
LST
Temp Definition
°C
Dew Point Definition
°C
Rel Hum Definition
%
Precip. Amount Definition
mm

Wind Dir Definition
10's deg

Wind Spd Definition
km/h
Visibility Definition
km
Stn Press Definition
kPa
Hmdx Definition


Wind Chill Definition


Weather Definition


00:00 -1.6 -4.7 79   28 13 24.1 99.63   -6 Mainly Clear
01:00 -1.2 -4.8 76   29 13 24.1 99.59   -5 Mostly Cloudy
02:00 -0.8 -5.0 73   30 13 24.1 99.60   -5 Cloudy
03:00 -0.9 -4.8 75   29 11 24.1 99.60   -5 Mostly Cloudy
04:00 -0.2 -5.3 68   31 13 24.1 99.59   -4 Mostly Cloudy
05:00 -2.2 -6.3 73   32 15 24.1 99.61   -7 Cloudy
06:00 -2.5 -6.3 75   31 20 24.1 99.66   -8 Cloudy
07:00 -3.3 -7.5 73   31 32 24.1 99.71   -11 Cloudy
08:00 -4.3 -8.8 71   31 30 24.1 99.78   -12 Mostly Cloudy
09:00 -4.3 -8.7 71   31 30 24.1 99.84   -12 Mostly Cloudy
10:00 -4.3 -9.7 66   31 24 24.1 99.84   -11 Mainly Clear
11:00 -3.8 -9.5 65   32 32 24.1 99.89   -12 Mainly Clear
12:00 -4.3 -10.1 64   30 24 24.1 99.83   -11 Mainly Clear
13:00 -3.4 -10.0 60   30 22 24.1 99.80   -10 Mainly Clear
14:00 -3.4 -10.6 57   31 32 24.1 99.79   -11 Clear
15:00 -3.3 -11.3 54   30 30 24.1 99.88   -11 Mainly Clear
16:00 -3.7 -11.0 57   32 33 24.1 99.90   -12 Mainly Clear
17:00 -4.4 -11.1 59   30 20 24.1 99.95   -11 Mainly Clear
18:00 -5.2 -11.0 64   31 13 24.1 100.02   -10 Mainly Clear
19:00 -6.4 -10.7 71   32 7 24.1 100.04   -10 Clear
20:00 -6.6 -11.4 69   31 7 24.1 100.14   -10 Clear
21:00 -7.6 -10.6 79   29 9 24.1 100.21   -12 Mainly Clear
22:00 -7.2 -11.2 73   30 9 24.1 100.26   -12 Mainly Clear
23:00 -7.4 -10.9 76     0 24.1 100.25     Cloudy

Notes on Data Quality.

Legend

  • E = Estimated
  • M = Missing
  • NA = Not Available*
  • [empty] = Indicates an unobserved value
Date modified: